Location: Newark
(13.6797°N, 8.5297°E)
Time: 18:40:13
(UTC+00:00)

Altair - Pass Details

Date: 03 February 2020
Orbit: 1502 x 1682 km, 47.2° (Epoch: 25 February)

Event Time Altitude Azimuth Distance (km) Brightness Sun altitude
Rises 10:22:03 0° 337° (NNW) 4,926 9.8 54.2°
Reaches altitude 10° 10:28:46 10° 8° (N) 3,936 9.5 55.0°
Maximum altitude 10:31:50 12° 26° (NNE) 3,803 9.5 55.4°
Drops below altitude 10° 10:34:53 10° 44° (NE) 3,920 9.7 55.7°
Sets 10:41:27 0° 75° (ENE) 4,876 10.2 56.5°
